Szolnok, Hungary

4:10 PM CEST on April 27, 2017 (GMT +0200)
Szolnok

Weather History for LHSN - March, 2013

Change the Weather History Date:

Wednesday, March 6, 2013

  Actual Average (LHBP) Record (LHBP)
Temperature  
Mean Temperature 45 °F -  
Max Temperature 57 °F 45 °F 64 °F (2002)
Min Temperature 33 °F 28 °F 6 °F (2004)
Degree Days  
Heating Degree Days 20    
Moisture  
Dew Point 32 °F    
Average Humidity 59    
Maximum Humidity 81    
Minimum Humidity 41    
Precipitation  
Precipitation 0.00 in - - ()
Sea Level Pressure  
Sea Level Pressure 29.99 in    
Wind  
Wind Speed 8 mph ()    
Max Wind Speed 16 mph    
Max Gust Speed -    
Visibility 6.2 miles    
Events Rain    
Averages and records for this station are not official NWS values.
T = Trace of Precipitation, MM = Missing Value Source: Averaged Metar Reports

Daily Weather History Graph

Daily Weather History Graph

Search for Another Location

Airport or City:

Trip Planner

Search our weather history database for the weather conditions in past years. The results will help you decide how hot, cold, wet, or windy it might be!

Date:

Astronomy

Mar. 06, 2013 Rise Set
Actual Time 6:09 AM CET 5:31 PM CET
Civil Twilight 5:39 AM CET 6:02 PM CET
Nautical Twilight 5:03 AM CET 6:37 PM CET
Astronomical Twilight 4:28 AM CET 7:13 PM CET
Moon 2:19 AM CET (3/6) 11:37 AM CET (3/6)
Length of Visible Light 12h 23m
Length of Day
11h 22m
Waning Crescent, 33% of the Moon is Illuminated
Mar 6
Waning Crescent
Mar 11
New
Mar 19
First Quarter
Mar 27
Full
Apr 3
Last Quarter

Hourly Weather History & Observations

Time (CET) Temp. Windchill Dew Point Humidity Pressure Visibility Wind Dir Wind Speed Gust Speed Precip Events Conditions
12:15 AM 35.6 °F 28.7 °F 24.8 °F 65% 30.15 in - SSE 8.9 mph - N/A   Clear
12:45 AM 33.8 °F 27.9 °F 24.8 °F 70% 30.15 in - SSE 6.7 mph - N/A   Clear
1:15 AM 33.8 °F 27.9 °F 24.8 °F 70% 30.15 in - SSE 6.7 mph - N/A   Clear
1:45 AM 33.8 °F 27.9 °F 24.8 °F 70% 30.15 in - SSE 6.7 mph - N/A   Clear
2:15 AM 33.8 °F 27.9 °F 24.8 °F 70% 30.12 in - SSE 6.7 mph - N/A   Clear
2:45 AM 33.8 °F 27.9 °F 24.8 °F 70% 30.12 in - SSE 6.7 mph - N/A   Clear
3:15 AM 33.8 °F 29.7 °F 26.6 °F 75% 30.12 in - SSE 4.5 mph - N/A   Clear
3:45 AM 33.8 °F 27.9 °F 26.6 °F 75% 30.09 in - SE 6.7 mph - N/A   Clear
4:15 AM 35.6 °F 30.0 °F 26.6 °F 70% 30.09 in - SSE 6.7 mph - N/A   Clear
4:45 AM 35.6 °F 30.0 °F 26.6 °F 70% 30.09 in - SSE 6.7 mph - N/A   Clear
5:15 AM 35.6 °F 28.7 °F 26.6 °F 70% 30.09 in - SSE 8.9 mph - N/A   Clear
5:45 AM - - - N/A% - - SSE 8.9 mph - N/A   Clear
6:15 AM 33.8 °F 29.7 °F 26.6 °F 75% 30.09 in - SSE 4.5 mph - N/A   Clear
6:45 AM 33.8 °F 29.7 °F 28.4 °F 81% 30.09 in - SE 4.5 mph - N/A   Clear
7:15 AM 35.6 °F 31.8 °F 28.4 °F 75% 30.09 in - ESE 4.5 mph - N/A   Clear
7:45 AM 41.0 °F 38.1 °F 30.2 °F 65% 30.06 in - SE 4.5 mph - N/A   Clear
8:15 AM 42.8 °F 35.9 °F 30.2 °F 61% 30.06 in - South 13.4 mph - N/A   Clear
8:45 AM 44.6 °F 38.2 °F 32.0 °F 61% 30.06 in - South 13.4 mph - N/A   Clear
9:15 AM 46.4 °F 39.9 °F 30.2 °F 53% 30.06 in - South 15.7 mph - N/A   Clear
9:45 AM 46.4 °F 40.5 °F 30.2 °F 53% 30.06 in - South 13.4 mph - N/A   Clear
10:15 AM 48.2 °F - 32.0 °F 54% 30.04 in - South 13.4 mph - N/A   Clear
10:45 AM 50.0 °F - 32.0 °F 50% 30.04 in - South 13.4 mph - N/A   Clear
11:15 AM 51.8 °F - 33.8 °F 50% 30.04 in - South 11.2 mph - N/A   Clear
11:45 AM - - - N/A% - - South 11.2 mph - N/A   Clear
12:15 PM 53.6 °F - 33.8 °F 47% 30.01 in - South 11.2 mph - N/A   Clear
12:45 PM 55.4 °F - 33.8 °F 44% 29.98 in - South 13.4 mph - N/A   Clear
1:15 PM 55.4 °F - 33.8 °F 44% 29.95 in - South 13.4 mph - N/A   Clear
1:45 PM 57.2 °F - 33.8 °F 41% 29.95 in - South 13.4 mph - N/A   Clear
2:15 PM 55.4 °F - 35.6 °F 47% 29.95 in - South 15.7 mph - N/A   Clear
2:45 PM 55.4 °F - 35.6 °F 47% 29.95 in - South 13.4 mph - N/A   Clear
3:15 PM 55.4 °F - 35.6 °F 47% 29.92 in - South 11.2 mph - N/A   Clear
3:45 PM 55.4 °F - 37.4 °F 51% 29.92 in - South 11.2 mph - N/A   Clear
4:15 PM 55.4 °F - 37.4 °F 51% 29.92 in - SSE 6.7 mph - N/A   Clear
4:45 PM 55.4 °F - 37.4 °F 51% 29.89 in - SSE 6.7 mph - N/A   Clear
5:15 PM 53.6 °F - 37.4 °F 54% 29.89 in - SE 6.7 mph - N/A   Clear
5:45 PM 53.6 °F - 37.4 °F 54% 29.89 in - SE 8.9 mph - N/A   Clear
6:15 PM 53.6 °F - 37.4 °F 54% 29.89 in - SSE 11.2 mph - N/A   Clear
6:45 PM 53.6 °F - 37.4 °F 54% 29.89 in - SSE 11.2 mph - N/A   Clear
7:15 PM 51.8 °F - 37.4 °F 58% 29.86 in - SSE 8.9 mph - N/A   Clear
7:45 PM 51.8 °F - 37.4 °F 58% 29.86 in - SSE 8.9 mph - N/A   Clear
8:15 PM 51.8 °F - 35.6 °F 54% 29.86 in - SSE 11.2 mph - N/A   Clear
8:45 PM 51.8 °F - 35.6 °F 54% 29.86 in - South 11.2 mph - N/A   Clear
9:15 PM 50.0 °F - 35.6 °F 58% 29.86 in - SSE 8.9 mph - N/A   Clear
9:45 PM 50.0 °F - 35.6 °F 58% 29.86 in - South 11.2 mph - N/A   Clear
10:15 PM 50.0 °F - 33.8 °F 54% 29.86 in - South 11.2 mph - N/A   Clear
10:45 PM 48.2 °F - 33.8 °F 58% 29.86 in - South 11.2 mph - N/A   Clear
11:15 PM 48.2 °F - 33.8 °F 58% 29.86 in - South 11.2 mph - N/A   Clear
11:45 PM - - - N/A% - 6.2 mi North - - N/A Rain Light Rain